This demonstration page uses our WeatherBlox Daily Observations layout. Learn more.

Left ArrowRight Arrow

Hourly Observations for March 1, 2018

Temp ( °F °C ) Dew Point ( °F °C ) Humidity (%) Winds ( mph kmh ) Pressure ( in mb ) Visibility ( mi km ) Precip ( " mm )
12:59 am 00:59 Cloudy 56 13.3 46 7.8 70 70 SW 8 13 29.96 1015 10 16 0.00 0.00
1:54 am 01:54 Cloudy 54 12 48 9 82 82 SW 5 7 29.94 1014 10 16 0.00 0.00
1:59 am 01:59 Cloudy 53 11.7 49 9.4 86 86 SW 6 9 29.93 1014 10 16 0.00 0.00
2:59 am 02:59 Cloudy 53 11.7 50 10 89 89 SSW 5 7 29.91 1013 10 16 0.00 0.00
3:59 am 03:59 Cloudy 53 11.7 50 10 89 89 Calm 29.88 1012 8 13 0.00 0.00
4:59 am 04:59 Cloudy 53 11.7 50 10 89 89 Calm 29.88 1012 7 11 0.00 0.00
5:02 am 05:02 Cloudy with Mist and Fog 53 11.7 50 10 89 89 Calm 29.88 1012 6 10 0.00 0.00
5:25 am 05:25 Cloudy 53 11.7 50 10 89 89 Calm 29.88 1012 7 11 0.00 0.00
5:59 am 05:59 Cloudy with Light Rain 53 11.7 50 10 89 89 SW 5 7 29.89 1012 6 10 0.00 0.03
6:26 am 06:26 Cloudy 53 11.7 50 10 89 89 W 3 6 29.88 1012 7 11 0.00 0.03
6:46 am 06:46 Cloudy 53 11.7 50 10 89 89 W 3 6 29.91 1013 7 11 0.00 0.03
6:52 am 06:52 Cloudy 53 11.7 50 10 89 89 W 3 6 29.91 1013 7 11 0.00 0.03
6:59 am 06:59 Cloudy 53 11.7 50 10 89 89 W 3 6 29.89 1012 7 11 0.00 0.03
7:59 am 07:59 Cloudy with Mist and Fog 53 11.7 50 10 89 89 SSW 6 9 29.90 1012 6 10 0.00 0.00
8:10 am 08:10 Cloudy with Mist and Fog 54 12.2 51 10.6 90 90 SSW 5 7 29.88 1012 6 10 0.00 0.00
8:42 am 08:42 Cloudy with Mist and Fog 54 12.2 51 10.6 90 90 SSE 3 6 29.85 1011 4 6 0.00 0.00
8:59 am 08:59 Cloudy with Mist and Fog 55 12.8 52 11.1 90 90 SSW 5 7 29.84 1011 4 6 0.00 0.00
9:59 am 09:59 Cloudy with Light Rain 55 12.8 53 11.7 93 93 Calm 29.84 1010 4 6 0.00 0.03
10:59 am 10:59 Cloudy with Light Rain 55 12.8 52 11.1 90 90 WSW 5 7 29.84 1010 4 6 0.01 0.25
11:59 am 11:59 Cloudy with Mist and Fog 56 13.3 53 11.7 90 90 N 3 6 29.80 1009 4 6 0.01 0.25
12:30 pm 12:30 Cloudy with Mist and Fog 56 13.3 53 11.7 90 90 Calm 29.80 1009 4 6 0.01 0.25
12:49 pm 12:49 Cloudy with Light Rain 56 13.3 54 12.2 93 93 Calm 29.80 1009 3 5 0.01 0.25
12:59 pm 12:59 Cloudy with Mist and Fog 56 13.3 54 12.2 93 93 Calm 29.78 1008 3 5 0.01 0.25
1:30 pm 13:30 Cloudy with Light Rain 56 13.3 53 11.7 90 90 Calm 29.77 1008 2 2 0.03 0.76
1:59 pm 13:59 Cloudy with Light Rain 56 13.3 54 12.2 93 93 S 3 6 29.75 1008 3 5 0.05 1.27
2:47 pm 14:47 Cloudy with Rain 56 13.3 54 12.2 93 93 S 3 6 29.74 1007 3 4 0.08 2.03
2:59 pm 14:59 Cloudy with Rain 56 13.3 54 12.2 93 93 SSE 3 6 29.72 1007 3 5 0.11 2.79
3:08 pm 15:08 Cloudy with Light Rain 57 13.9 54 12.2 90 90 Calm 29.74 1007 2 3 0.02 0.51
3:59 pm 15:59 Cloudy with Light Rain 57 13.9 55 12.8 93 93 Calm 29.70 1006 2 3 0.09 2.29
4:06 pm 16:06 Cloudy with Light Rain 57 13.9 55 12.8 93 93 SSE 3 6 29.71 1006 2 3 0.00 0.03
4:23 pm 16:23 Cloudy with Light Rain 57 13.9 55 12.8 93 93 Calm 29.68 1005 2 3 0.01 0.25
4:30 pm 16:30 Cloudy with Light Rain 57 13.9 55 12.8 93 93 Calm 29.68 1005 2 3 0.01 0.25
4:41 pm 16:41 Cloudy with Mist and Fog 57 13.9 54 12.2 90 90 Calm 29.68 1005 3 5 0.01 0.25
4:59 pm 16:59 Cloudy with Light Rain 57 13.9 54 12.2 90 90 ESE 7 11 29.64 1004 3 5 0.02 0.51
5:28 pm 17:28 Cloudy with Mist and Fog 57 13.9 55 12.8 93 93 SSE 6 9 29.62 1003 4 6 0.00 0.03
5:52 pm 17:52 Cloudy with Light Rain 57 13.9 54 12.2 90 90 SSE 7 11 29.62 1003 4 6 0.01 0.25
5:59 pm 17:59 Cloudy with Light Rain 57 13.9 55 12.8 93 93 SSE 7 11 29.61 1003 4 6 0.01 0.25
6:51 pm 18:51 Cloudy 57 13.9 54 12.2 90 90 SSE 13 20 29.56 1001 8 13 0.03 0.76
6:59 pm 18:59 Cloudy 57 13.9 55 12.8 93 93 SSE 8 13 29.56 1001 10 16 0.03 0.76
7:31 pm 19:31 Cloudy 57 13.9 55 12.8 93 93 Calm 29.53 1000 10 16 0.00 0.00
7:59 pm 19:59 Cloudy 57 13.9 54 12.2 90 90 S 5 7 29.53 1000 9 14 0.00 0.00
8:59 pm 20:59 Cloudy 57 13.9 55 12.8 93 93 W 8 13 29.56 1001 9 14 0.00 0.00
9:59 pm 21:59 Cloudy 57 13.9 54 12.2 90 90 W 10 17 29.55 1001 10 16 0.00 0.00
10:59 pm 22:59 Cloudy 57 13.9 54 12.2 90 90 WSW 14 22 29.53 1000 10 16 0.00 0.00
11:59 pm 23:59 Partly Cloudy 56 13.3 52 11.1 87 87 WSW 15 24 29.51 999 10 16 0.00 0.00

Powered by AerisWeather